Location: Unspecified
(0.0000°N, 0.0000°E)
Time: 15:06:18
(UTC+00:00)

Altair - Pass Details

Date: 01 November 2021
Orbit: 1502 x 1682 km, 47.2° (Epoch: 26 November)

Event Time Altitude Azimuth Distance (km) Brightness Sun altitude
Rises 07:48:10 0° 341° (NNW) 4,816 9.8 30.0°
Reaches altitude 10° 07:51:50 10° 351° (N) 3,857 9.5 30.9°
Maximum altitude 08:00:08 30° 49° (NE) 2,646 9.5 32.9°
Drops below altitude 10° 08:08:34 10° 106° (ESE) 3,939 11.1 34.9°
Sets 08:12:18 0° 116° (ESE) 4,932 11.1 35.8°
